This is the latest recevied weather packets stored in our database for station/object EA1FLU-10. If no packets are shown the sender has not sent any weather packets the latest 10 day(s).
| Time | Temp. | Humidity | Pressure | Rain* | Wind** | Luminosity | Snow |
|---|---|---|---|---|---|---|---|
| 1777693536 | 16.67° C | 54% | 1022.2 hPa | - | - | - | - |
| 1777691735 | 16.67° C | 54% | 1022.2 hPa | - | - | - | - |
| 1777689935 | 16.67° C | 53% | 1022.1 hPa | - | - | - | - |
| 1777688136 | 17.22° C | 53% | 1022.4 hPa | - | - | - | - |
| 1777686335 | 17.22° C | 53% | 1022.6 hPa | - | - | - | - |
| 1777684535 | 17.78° C | 53% | 1022.7 hPa | - | - | - | - |
| 1777682735 | 17.78° C | 52% | 1022.9 hPa | - | - | - | - |
| 1777680935 | 18.33° C | 52% | 1023.2 hPa | - | - | - | - |
| 1777679135 | 18.33° C | 52% | 1023.4 hPa | - | - | - | - |
| 1777677335 | 18.89° C | 52% | 1023.5 hPa | - | - | - | - |
| 1777675535 | 18.89° C | 50% | 1023.3 hPa | - | - | - | - |
| 1777673735 | 19.44° C | 50% | 1023.6 hPa | - | - | - | - |
| 1777671935 | 20° C | 50% | 1023.7 hPa | - | - | - | - |
| 1777670135 | 20.56° C | 49% | 1023.7 hPa | - | - | - | - |
| 1777668335 | 20.56° C | 48% | 1023.6 hPa | - | - | - | - |
| 1777666535 | 21.11° C | 48% | 1023.3 hPa | - | - | - | - |
| 1777664735 | 21.67° C | 48% | 1023 hPa | - | - | - | - |
| 1777662935 | 22.22° C | 47% | 1022.9 hPa | - | - | - | - |
| 1777661135 | 22.78° C | 47% | 1022.8 hPa | - | - | - | - |
| 1777659335 | 23.33° C | 45% | 1022.7 hPa | - | - | - | - |
| 1777657535 | 23.89° C | 45% | 1022.5 hPa | - | - | - | - |
| 1777655734 | 24.44° C | 44% | 1022.5 hPa | - | - | - | - |
| 1777653934 | 25.56° C | 43% | 1022.5 hPa | - | - | - | - |
| 1777652134 | 25.56° C | 42% | 1022.6 hPa | - | - | - | - |
| 1777650334 | 26.11° C | 42% | 1022.8 hPa | - | - | - | - |
* Rain since midnight (hover to see other rain measurements)
** Current wind speed in m/s (hover to see current wind gust speed)